Preview of NWS' New Version of Forecast
This preview is not operational and should not be used for support decisions.

Regional Weather Roundup (RWR)

Issued by National Weather Service (NWS)

                            
000
ASUS43 KDMX 220506
RWRIA 

WEATHER ROUNDUP FOR IOWA
NATIONAL WEATHER SERVICE DES MOINES IA
1200 AM CDT MON APR 22 2019

NOTE: "FAIR" INDICATES FEW OR NO CLOUDS BELOW 12,000 FEET WITH NO
SIGNIFICANT WEATHER AND/OR OBSTRUCTIONS TO VISIBILITY.

* - THESE STATIONS ARE NOT NWS STATIONS...THUS NOT UNDER NWS
QUALITY CONTROL.  THEY ALSO DO NOT REPORT WEATHER SUCH 
AS PRECIPITATION OR FOG.  

IAZ001>003-012>014-020>022-031>034-043>046-220600-
   NORTHWEST IOWA
  
CITY           SKY/WX    TMP DP  RH WIND       PRES   REMARKS
CARROLL *      PTCLDY    70  46  43 S17       29.77F                  
CHEROKEE *     PTCLDY    69  47  46 S12       29.73F                  
DENISON *      PTCLDY    70  46  43 S17G24    29.76F                  
LE MARS *      PTCLDY    61  54  77 N8G18     29.74S                  
SHELDON *      CLOUDY    57  52  82 NE21G29   29.77S                  
SIOUX CITY     CLOUDY    67  53  61 E5        29.70F                  
SPENCER        CLOUDY    62  50  64 NE20      29.79S                  
STORM LAKE *   PTCLDY    66  46  48 SE12      29.73S                  
$$
 
IAZ055>058-069>071-079>083-090>094-220600-
   SOUTHWEST IOWA
  
CITY           SKY/WX    TMP DP  RH WIND       PRES   REMARKS
ATLANTIC *     CLEAR     70  46  43 MISG      29.78S                  
AUDUBON *      CLEAR     64  48  55 CALM      29.81S                  
CLARINDA *     PTCLDY    68  46  45 S6        29.82R                  
COUNCIL BLFS * CLOUDY    72  46  40 S15       29.76S                  
CRESTON *      MOCLDY    64  48  55 S10       29.83R                  
HARLAN  *      PTCLDY    68  46  45 S13       29.77F                  
LAMONI         MOCLDY    69  46  43 S9        29.84R                  
RED OAK *      PTCLDY    72  46  40 S16       29.79R                  
SHENANDOAH *   PTCLDY    72  46  40 S16       29.77S                  
$$
 
IAZ047>049-059>061-072>074-084-220600-
   CENTRAL IOWA
  
CITY           SKY/WX    TMP DP  RH WIND       PRES   REMARKS
AMES           CLOUDY    70  48  45 SE10      29.82F                  
ANKENY *       CLOUDY    73  45  35 S14G21    29.84S                  
BOONE *        CLOUDY    68  48  49 S12       29.81S                  
CHARITON *     MOCLDY    68  46  45 SE10      29.85S                  
DES MOINES     CLOUDY    73  44  35 S15       29.83S                  
GRINNELL*      CLOUDY    66  48  52 SE12      29.88S                  
KNOXVILLE *    CLOUDY    70  45  40 SE12      29.85S                  
MARSHALLTOWN   PTCLDY    68  50  52 SE12      29.85S                  
NEWTON *       CLOUDY    68  48  49 SE12      29.86S                  
PELLA *        PTCLDY    70  44  38 SE8       29.87S                  
PERRY *        FAIR      70  44  38 S15       29.80S                  
$$
 
IAZ004>006-015-016-023>025-035-036-220600-
   NORTH CENTRAL IOWA
  
CITY           SKY/WX    TMP DP  RH WIND       PRES   REMARKS
ALGONA *       CLOUDY    68  48  49 S17G24    29.79R                  
CLARION *      CLOUDY    68  48  49 SE14      29.81F                  
ESTHERVILLE    CLOUDY    57  49  74 N17       29.81S                  
FORT DODGE *   MOCLDY    71  49  45 SE10      29.80F                  
MASON CITY     PTCLDY    62  49  62 SE13      29.84S                  
FOREST CITY *  FAIR      63  46  55 S10       29.82S                  
IOWA FALLS *   MOCLDY    69  49  47 SE15      29.85S                  
$$

IAZ007>011-017>019-026>030-037>042-050>054-066-220600-
   NORTHEAST IOWA
  
CITY           SKY/WX    TMP DP  RH WIND       PRES   REMARKS
CEDAR RAPIDS   FAIR      66  45  46 SE14      29.89F                  
CHARLES CITY * FAIR      66  48  52 SE14      29.86F                  
CLINTON *      FAIR      65  46  50 S14       29.97R                  
DECORAH *      FAIR      66  46  48 S13G20    29.87F                  
DUBUQUE        FAIR      61  45  55 S13       29.95R                  
MONTICELLO *   FAIR      66  45  45 SE12G17   29.93R                  
OELWEIN *      CLOUDY    64  48  55 SE12      29.90S                  
WATERLOO       FAIR      68  47  46 SE14      29.86S                  
$$
 
IAZ064-065-067-068-078-220600-
   EAST CENTRAL IOWA
  
CITY           SKY/WX    TMP DP  RH WIND       PRES   REMARKS
DAVENPORT      FAIR      69  42  37 S20G26    29.97R                  
IOWA CITY      FAIR      62  46  55 SE7       29.93S                  
MT. PLEASANT * CLOUDY    68  48  49 S13       29.93R                  
MUSCATINE *    FAIR      68  45  42 SE12      29.94R                  
QUAD CITIES    FAIR      68  44  42 SE10      29.95R                  
$$
 
IAZ062-063-075>077-085>089-095>099-220600-
   SOUTHEAST IOWA
  
CITY           SKY/WX    TMP DP  RH WIND       PRES   REMARKS
BURLINGTON     MOCLDY    68  45  43 S15G26    29.93R                  
FAIRFIELD *    CLOUDY    66  45  45 SE8       29.90S                  
FORT MADISON * MOCLDY    68  48  49 SE12      29.93F                  
KEOKUK *       MOCLDY    68  46  45 SE10      29.91S                  
OSKALOOSA *    FAIR      65  46  49 SE10      29.88F                  
CENTERVILLE *  FAIR      64  46  52 SE10      29.89S                  
OTTUMWA        CLOUDY    69  45  41 SE12      29.88S                  
WASHINGTON *   MOCLDY    66  45  45 S12       29.93R                  
$$

ABBREVIATIONS USED IN REMARKS
   TC - TEMPERATURES IN CELSIUS
  WCI - WIND CHILL INDEX
   HX - HEAT INDEX
  VSB - VISIBILITY  
$$